Location: Ermatingen
(47.6706°N, 9.0857°E)
Time: 08:11:47
(UTC+00:00)

Cosmos 1428 Rocket - Pass Details

Date: 04 December 2021
Orbit: 949 x 987 km, 82.9° (Epoch: 26 January)

Event Time Altitude Azimuth Distance (km) Brightness Sun altitude
Rises 18:37:52 0° 337° (NNW) 3,635 7.8 -30.2°
Reaches altitude 10° 18:41:19 10° 318° (NW) 2,688 7.3 -30.8°
Maximum altitude 18:44:55 16° 281° (WNW) 2,255 7.1 -31.4°
Drops below altitude 10° 18:48:31 10° 245° (WSW) 2,689 7.5 -32.0°
Sets 18:51:59 0° 225° (SW) 3,637 8.0 -32.6°
